Home   Weather   Horsens   Past weeks

Flag for Denmark Past Weather in Horsens, Denmark — Yesterday and Last 2 Weeks

Now
36 °F

Passing clouds.


Feels Like: 30 °F
Forecast: 34 / 46 °F
Wind: 7 mph from West

Location: Billund Lufthavn

Current Time: Apr 24, 2017 at 11:16:45 pm

Latest Report: Apr 24, 2017 at 10:20 pm


Visibility: N/A

Pressure: 29.68 "Hg

Humidity: 70%

Dew Point: 27 °F

Location of HorsensLocation

Past Weather in Horsens — Graph

°F

Horsens Temperature Yesterday

Maximum temperature yesterday: 48 °F (at 3:20 pm)
Minimum temperature yesterday: 37 °F (at 5:50 am)
Average temperature yesterday: 42 °F

High & Low Weather Summary for the Past Weeks

 TemperatureHumidityPressure
High52 °F (Apr 10, 2:50 am)100% (Apr 11, 9:20 pm)30.63 "Hg (Apr 11, 9:20 pm)
Low25 °F (Apr 19, 5:50 am)34% (Apr 19, 10:20 am)29.59 "Hg (Apr 13, 2:20 am)
Average42 °F78%30.00 "Hg
* Reported Apr 9 9:20 pm — Apr 24 9:50 pm, Horsens, Weather by CustomWeather, © 2017

Note: Actual official high and low records may vary slightly from our data, if they occured in-between our weather recording intervals... More about our weather records

Advertising

Horsens Weather History for the Previous 24 Hours

Scroll right to see more
 ConditionsComfort  
Time TempWeatherWind HumidityBarometerVisibility
9:50 pm
Mon, Apr 24
36 °FChilly.8 mph65%29.68 "HgN/A
9:20 pm36 °FChilly.9 mph65%29.68 "HgN/A
8:50 pm39 °FPassing clouds.13 mph52%29.68 "HgN/A
8:20 pm39 °FPassing clouds.15 mph56%29.68 "HgN/A
7:50 pm39 °FPassing clouds.20 mph56%29.68 "HgN/A
7:20 pm41 °FPassing clouds.18 mph49%29.68 "HgN/A
6:50 pm43 °FScattered clouds.21 mph49%29.68 "HgN/A
6:20 pm43 °FPartly sunny.25 mph49%29.68 "HgN/A
5:50 pm43 °FPassing clouds.21 mph53%29.68 "HgN/A
5:20 pm43 °FPassing clouds.22 mph46%29.68 "HgN/A
4:50 pm45 °FPassing clouds.23 mph49%29.68 "HgN/A
4:20 pm45 °FScattered clouds.23 mph53%29.65 "HgN/A
3:50 pm45 °FScattered clouds.23 mph57%29.65 "HgN/A
3:20 pm43 °FPartly sunny.25 mph57%29.65 "HgN/A
2:50 pm45 °FPartly sunny.25 mph61%29.65 "HgN/A
1:50 pm43 °FPartly sunny.23 mph76%29.62 "HgN/A
1:20 pm46 °FPartly sunny.24 mph76%29.62 "HgN/A
12:50 pm46 °FPartly sunny.23 mph82%29.62 "HgN/A
12:20 pm45 °FPartly sunny.22 mph87%29.62 "HgN/A
11:50 am45 °FMostly cloudy.25 mph87%29.62 "HgN/A
11:20 am45 °FSprinkles. Cloudy.21 mph93%29.62 "HgN/A
10:50 am46 °FSprinkles. More clouds than sun.17 mph87%29.62 "HgN/A
10:20 am46 °FSprinkles. More clouds than sun.18 mph87%29.62 "HgN/A
9:50 am46 °FSprinkles. Broken clouds.17 mph82%29.65 "Hg5 mi
9:20 am46 °FBroken clouds.20 mph82%29.65 "HgN/A
8:50 am46 °FDrizzle. Overcast.18 mph87%29.68 "HgN/A
8:20 am46 °FOvercast.18 mph82%29.68 "HgN/A
7:50 am46 °FOvercast.17 mph82%29.71 "HgN/A
7:20 am45 °FOvercast.18 mph87%29.71 "HgN/A
6:50 am45 °FOvercast.18 mph81%29.74 "HgN/A
6:20 am45 °FOvercast.16 mph81%29.74 "HgN/A
5:50 am45 °FOvercast.14 mph81%29.77 "HgN/A
5:20 am43 °FMostly cloudy.12 mph87%29.80 "HgN/A
4:50 am43 °FOvercast.12 mph87%29.83 "HgN/A
4:20 am43 °FSprinkles. Overcast.9 mph81%29.86 "HgN/A
3:50 am41 °FOvercast.10 mph81%29.89 "HgN/A
3:20 am41 °FDrizzle. Overcast.10 mph81%29.92 "HgN/A
2:50 am41 °FMostly cloudy.10 mph81%29.92 "HgN/A
2:20 am41 °FOvercast.13 mph81%29.95 "HgN/A
1:50 am41 °FLight rain. Overcast.15 mph87%29.95 "HgN/A
1:20 am41 °FLight rain. Mostly cloudy.10 mph93%29.98 "HgN/A
12:50 am41 °FDrizzle. Overcast.8 mph93%29.98 "HgN/A
12:20 am41 °FLight rain. Mostly cloudy.9 mph87%30.01 "HgN/A
11:50 pm
Sun, Apr 23
41 °FPassing clouds.9 mph87%30.01 "HgN/A
11:20 pm41 °FPassing clouds.7 mph87%30.01 "HgN/A
Weather by CustomWeather, © 2017

See weather overviewHow to use our weather pages